Location: Fort Collins
(40.5850°N, 105.0840°W)
Time: 20:04:07
(UTC-06:00)

Cosmos 2297 Rocket - Visible Passes

Search period start: 20 September 2014 00:00
Search period end: 30 September 2014 00:00
Orbit: 840 x 843 km, 71.0° (Epoch: 18 September)

Date Brightness Start Highest point End Pass type
(mag) Time Alt. Az. Time Alt. Az. Time Alt. Az.
20 Sep 3.7 20:54:29 10° N 20:58:20 21° NE 20:58:20 21° NE visible
20 Sep 4.0 22:37:36 10° NNW 22:40:09 27° NW 22:40:09 27° NW visible
21 Sep 3.7 20:39:33 10° N 20:43:37 20° NE 20:43:46 20° NE visible
21 Sep 3.7 22:22:34 10° NNW 22:25:35 32° NW 22:25:35 32° NW visible
22 Sep 3.7 20:24:38 10° N 20:28:34 19° NE 20:29:14 19° ENE visible
22 Sep 3.4 22:07:33 10° NNW 22:11:03 39° NW 22:11:03 39° NW visible
23 Sep 3.7 20:09:42 10° N 20:13:30 18° NE 20:14:45 17° ENE visible
23 Sep 3.0 21:52:31 10° NNW 21:56:35 48° NW 21:56:35 48° NW visible
24 Sep 3.8 19:54:47 10° N 19:58:27 17° NE 20:00:20 15° ENE visible
24 Sep 2.6 21:37:30 10° NNW 21:42:09 60° NW 21:42:09 60° NW visible
25 Sep 3.8 19:39:52 10° N 19:43:23 17° NE 19:45:58 13° E visible
25 Sep 2.2 21:22:29 10° NNW 21:27:48 77° WNW 21:27:48 77° WNW visible
26 Sep 3.9 19:24:58 10° NNE 19:28:20 16° NE 19:31:40 10° E visible
26 Sep 2.1 21:07:28 10° NNW 21:13:08 85° WSW 21:13:31 78° S visible
27 Sep 3.9 19:10:04 10° NNE 19:13:16 15° NE 19:16:27 10° E visible
27 Sep 2.1 20:52:27 10° NNW 20:58:07 89° WSW 20:59:19 58° SSE visible
27 Sep 4.9 22:39:49 10° W 22:41:10 11° W 22:41:10 11° W visible
28 Sep 2.1 20:37:26 10° NNW 20:43:07 86° ENE 20:45:14 40° SSE visible
28 Sep 4.8 22:24:22 10° WNW 22:26:18 12° W 22:27:05 11° WSW visible
29 Sep 2.1 20:22:25 10° NNW 20:28:06 82° ENE 20:31:16 27° SSE visible
29 Sep 4.8 22:09:01 10° WNW 22:11:19 13° W 22:13:09 11° WSW visible
